DW9923 Weather Reports


Display with metric or nautical units.
time (UTC)temp
F
wind
direction
speed
MPH
gust
MPH
rain 1hr
in
rain 24hr
in
rain mn
in
humidity
%
barometer
mb
20260504034602 59 281 0.0 0.0 0.00 0.01 0.01 74
20260504034043 59 281 0.0 2.0 0.00 0.01 0.01 74
20260504032926 59 281 0.0 0.0 0.00 0.01 0.01 74
20260504032414 59 281 0.0 3.0 0.00 0.01 0.01 74
20260504031910 59 281 0.0 0.0 0.00 0.01 0.01 74
20260504031405 60 281 0.0 0.0 0.00 0.01 0.01 74
20260504030231 60 281 0.0 0.0 0.00 0.01 0.01 74
20260504025713 60 281 0.0 0.0 0.00 0.01 0.01 74
20260504023944 60 281 0.0 0.0 0.00 0.01 0.01 73
20260504023429 60 281 0.0 0.0 0.00 0.01 0.01 73
20260504022913 61 281 0.0 1.0 0.00 0.01 0.01 73
20260504021756 61 281 0.0 0.0 0.00 0.01 0.01 72
20260504020632 61 281 0.0 0.0 0.00 0.01 0.01 72
20260504020141 62 281 0.0 0.0 0.00 0.01 0.01 72
20260504015640 62 281 0.0 0.0 0.00 0.01 0.01 72
20260504015144 62 281 0.0 5.0 0.00 0.01 0.01 72
20260504014640 62 300 0.0 3.0 0.00 0.01 0.01 71
20260504014134 63 300 0.0 0.0 0.00 0.01 0.01 70
20260504013643 63 300 0.0 0.0 0.00 0.01 0.01 70
20260504013135 63 300 0.0 0.0 0.00 0.01 0.01 69
20260504012637 63 300 0.0 0.0 0.00 0.01 0.01 69
20260504012131 63 300 0.0 0.0 0.00 0.01 0.01 69
20260504011639 63 300 0.0 0.0 0.00 0.01 0.01 68
20260504010521 64 300 0.0 3.0 0.00 0.01 0.01 66
20260504010022 64 300 0.0 3.0 0.00 0.01 0.01 66
20260504005520 64 300 0.0 4.0 0.00 0.01 0.01 65
20260504004959 65 211 0.0 4.0 0.00 0.01 0.01 64
20260504004444 65 302 0.0 8.0 0.00 0.01 0.01 63
20260504003925 65 310 1.0 8.0 0.00 0.01 0.01 61
20260504003414 66 311 2.0 8.0 0.00 0.01 0.01 61
20260504002855 66 305 0.0 8.0 0.00 0.01 0.01 59
20260504001715 65 199 0.0 0.0 0.00 0.01 0.01 60
20260504001157 65 200 0.0 1.0 0.00 0.01 0.01 60
20260504000700 65 199 0.0 0.0 0.00 0.01 0.01 59
20260504000151 65 205 1.0 0.0 0.00 0.01 0.01 60
20260503235014 67 193 0.0 5.0 0.00 0.01 0.01 58
20260503234506 67 185 0.0 0.0 0.00 0.01 0.01 58
20260503233341 67 188 1.0 0.0 0.00 0.01 0.01 58
20260503232840 67 187 0.0 1.0 0.00 0.01 0.01 58
20260503232336 67 271 0.0 4.0 0.00 0.01 0.01 59
20260503231835 67 271 0.0 0.0 0.00 0.01 0.01 58
20260503230700 68 271 1.0 6.0 0.00 0.01 0.01 58
20260503230158 68 271 0.0 3.0 0.00 0.01 0.01 57
20260503225651 68 271 0.0 9.0 0.00 0.01 0.01 55
20260503225157 68 276 0.0 1.0 0.00 0.01 0.01 56
20260503224042 68 278 0.0 0.0 0.00 0.01 0.01 58
20260503222905 68 279 0.0 2.0 0.00 0.01 0.01 58
20260503222408 68 279 0.0 0.0 0.00 0.01 0.01 61
20260503221852 68 279 0.0 0.0 0.00 0.01 0.01 60
20260503221333 67 279 0.0 4.0 0.00 0.01 0.01 62
20260503220220 67 279 0.0 0.0 0.00 0.01 0.01 62
20260503215719 66 279 0.0 2.0 0.00 0.01 0.01 65
20260503215213 65 279 0.0 0.0 0.00 0.01 0.01 64
20260503214708 65 279 0.0 0.0 0.00 0.01 0.01 65
20260503214156 65 273 0.0 2.0 0.00 0.01 0.01 65
20260503213700 65 273 0.0 6.0 0.00 0.01 0.01 66
20260503213157 64 263 0.0 0.0 0.00 0.01 0.01 66
20260503212646 64 263 0.0 2.0 0.00 0.01 0.01 66
20260503212130 64 263 0.0 5.0 0.00 0.01 0.01 66
20260503211611 64 246 0.0 0.0 0.00 0.01 0.01 66
20260503211052 64 246 0.0 0.0 0.00 0.01 0.01 66
20260503205929 64 211 0.0 0.0 0.00 0.01 0.01 65
20260503205438 64 211 0.0 0.0 0.00 0.01 0.01 65
20260503204937 64 211 0.0 0.0 0.00 0.01 0.01 65
20260503204440 65 211 0.0 1.0 0.00 0.01 0.01 66
20260503203946 65 211 0.0 0.0 0.00 0.01 0.01 66
20260503203456 65 211 0.0 0.0 0.00 0.01 0.01 66
20260503202944 64 211 0.0 0.0 0.00 0.01 0.01 68
20260503202436 64 211 0.0 0.0 0.00 0.01 0.01 69
20260503201928 63 211 0.0 0.0 0.00 0.01 0.01 69
20260503201414 63 211 0.0 3.0 0.00 0.01 0.01 70
20260503200908 62 210 0.0 0.0 0.00 0.01 0.01 70
20260503200358 62 210 0.0 0.0 0.00 0.01 0.01 72
20260503195219 62 210 0.0 0.0 0.00 0.01 0.01 73
20260503194715 62 210 0.0 0.0 0.00 0.01 0.01 73
20260503194159 62 210 0.0 0.0 0.00 0.01 0.01 73
20260503193647 62 210 0.0 0.0 0.00 0.01 0.01 73
20260503192520 62 210 0.0 0.0 0.00 0.01 0.01 74
20260503192025 62 210 0.0 0.0 0.00 0.01 0.01 73
20260503191522 62 210 0.0 0.0 0.00 0.01 0.01 74
20260503191014 62 203 0.0 0.0 0.00 0.01 0.01 74
20260503190508 62 203 0.0 0.0 0.00 0.01 0.01 74
20260503190007 62 203 0.0 3.0 0.00 0.01 0.01 74
20260503184830 62 195 0.0 0.0 0.00 0.01 0.01 74
20260503184333 62 195 0.0 0.0 0.00 0.01 0.01 74
20260503183829 61 194 0.0 0.0 0.00 0.01 0.01 75
20260503183338 61 194 0.0 0.0 0.00 0.01 0.01 75
20260503182836 61 194 0.0 0.0 0.00 0.01 0.01 75
20260503182335 61 195 0.0 0.0 0.00 0.01 0.01 75
20260503181200 61 195 0.0 0.0 0.00 0.01 0.01 75
20260503180645 61 194 0.0 0.0 0.00 0.01 0.01 76
20260503180130 61 194 0.0 0.0 0.00 0.01 0.01 76
20260503175623 61 195 0.0 0.0 0.00 0.01 0.01 76
20260503175103 61 195 0.0 0.0 0.00 0.01 0.01 77
20260503174555 61 195 0.0 0.0 0.00 0.01 0.01 77
20260503174046 61 195 0.0 0.0 0.00 0.01 0.01 77
20260503173542 61 195 0.0 0.0 0.00 0.01 0.01 77
20260503172413 61 195 0.0 0.0 0.00 0.01 0.01 77
20260503171250 61 195 0.0 0.0 0.00 0.01 0.01 78
20260503170750 60 194 0.0 0.0 0.00 0.01 0.01 78
20260503170252 60 195 0.0 0.0 0.00 0.01 0.01 79
20260503130939 56 202 0.0 0.0 0.00 0.01 0.01 92
20260503130435 56 202 0.0 0.0 0.00 0.01 0.01 92
20260503110604 57 202 0.0 0.0 0.00 0.01 0.01 93
20260503100249 57 295 0.0 0.0 0.00 0.01 0.01 93
20260503090429 57 295 0.0 0.0 0.00 0.01 0.01 92
20260503081144 58 295 0.0 0.0 0.00 0.00 0.00 92
20260503072458 58 295 0.0 1.0 0.00 0.00 0.00 91
20260503071958 58 295 0.0 0.0 0.00 0.00 0.00 91
20260503071505 58 295 0.0 1.0 0.00 0.00 0.00 91
20260503070957 58 295 0.0 0.0 0.00 0.00 0.00 91
20260503070447 58 295 0.0 1.0 0.00 0.00 0.00 91
20260503060223 57 295 0.0 1.0 0.00 0.00 0.00 91
20260503055049 57 295 0.0 1.0 0.00 0.00 0.00 91
20260503053906 57 296 0.0 1.0 0.00 0.00 0.00 91
20260503052151 57 296 0.0 0.0 0.00 0.00 0.00 90
20260503051012 57 296 1.0 3.0 0.00 0.00 0.00 89
20260503050508 57 296 0.0 3.0 0.00 0.00 0.00 88
20260503050002 57 296 0.0 0.0 0.00 0.00 0.00 87
20260503045510 57 296 0.0 1.0 0.00 0.00 0.00 85
20260503045005 57 296 0.0 2.0 0.00 0.00 0.00 83
20260503044508 57 296 0.0 0.0 0.00 0.00 0.00 82
20260503044003 57 296 0.0 0.0 0.00 0.00 0.00 82
20260503043457 58 296 0.0 0.0 0.00 0.00 0.00 81
20260503042953 58 296 0.0 0.0 0.00 0.00 0.00 82
20260503042440 58 296 0.0 0.0 0.00 0.00 0.00 81
20260503041926 58 296 0.0 0.0 0.00 0.00 0.00 82
20260503041425 59 296 0.0 0.0 0.00 0.00 0.00 81
20260503040924 59 296 0.0 0.0 0.00 0.00 0.00 81
20260503035202 60 296 0.0 0.0 0.00 0.00 0.00 80
20260503034702 61 296 0.0 0.0 0.00 0.00 0.00 80